Time,TemperatureF,DewpointF,PressureIn,WindDirection,WindDirectionDegrees,WindSpeedMPH,WindSpeedGustMPH,Humidity,HourlyPrecipIn,Conditions,Clouds,dailyrainin,SoftwareType,DateUTC
2013-02-10 00:02:00,37.9,33.2,28.56,ENE,68,3.5,3.5,83,0.00,RA,SCT,0.00,WeatherDisplay:10.37,2013-02-10 09:02:00,
2013-02-10 00:07:00,37.9,33.2,28.56,East,90,4.6,4.6,83,0.00,RA,SCT,0.00,WeatherDisplay:10.37,2013-02-10 09:07:00,
2013-02-10 00:12:00,37.9,33.2,28.56,ESE,112,3.5,3.5,83,0.00,CLR,SCT,0.00,WeatherDisplay:10.37,2013-02-10 09:12:00,
2013-02-10 00:17:00,37.8,33.1,28.56,ENE,68,4.6,4.6,83,0.00,CLR,SCT,0.00,WeatherDisplay:10.37,2013-02-10 09:17:00,
2013-02-10 00:22:00,38.1,33.4,28.56,East,90,5.8,5.8,83,0.00,CLR,SCT,0.00,WeatherDisplay:10.37,2013-02-10 09:22:00,
2013-02-10 00:27:00,37.9,33.2,28.56,SE,135,3.5,3.5,83,0.00,CLR,SCT,0.00,WeatherDisplay:10.37,2013-02-10 09:27:00,
2013-02-10 00:32:00,37.9,33.2,28.56,ENE,68,5.8,5.8,83,0.00,CLR,SCT,0.00,WeatherDisplay:10.37,2013-02-10 09:32:00,
2013-02-10 00:37:00,37.9,33.2,28.56,SE,135,0.0,0.0,83,0.04,RA,SCT,0.04,WeatherDisplay:10.37,2013-02-10 09:37:00,
2013-02-10 00:42:00,37.8,33.1,28.56,ENE,68,3.5,3.5,83,0.04,RA,SCT,0.04,WeatherDisplay:10.37,2013-02-10 09:42:00,
2013-02-10 00:47:00,37.9,33.2,28.56,SE,135,5.8,5.8,83,0.04,CLR,SCT,0.04,WeatherDisplay:10.37,2013-02-10 09:47:00,
2013-02-10 00:52:00,37.8,33.1,28.56,SE,135,0.0,0.0,83,0.04,CLR,SCT,0.04,WeatherDisplay:10.37,2013-02-10 09:52:00,
2013-02-10 00:57:00,37.8,33.1,28.56,SE,135,3.5,0.0,83,0.04,CLR,SCT,0.04,WeatherDisplay:10.37,2013-02-10 09:57:00,
2013-02-10 01:02:00,37.6,32.9,28.56,SE,135,0.0,0.0,83,0.04,CLR,SCT,0.04,WeatherDisplay:10.37,2013-02-10 10:02:00,
2013-02-10 01:07:00,37.9,33.2,28.56,ENE,68,2.3,0.0,83,0.04,CLR,SCT,0.04,WeatherDisplay:10.37,2013-02-10 10:07:00,
2013-02-10 01:12:00,37.8,33.1,28.56,ENE,68,0.0,0.0,83,0.04,CLR,SCT,0.04,WeatherDisplay:10.37,2013-02-10 10:12:00,
2013-02-10 01:17:00,37.8,33.1,28.56,ENE,68,4.6,4.6,83,0.04,CLR,SCT,0.04,WeatherDisplay:10.37,2013-02-10 10:17:00,
2013-02-10 01:22:00,37.8,33.1,28.56,East,90,3.5,3.5,83,0.04,CLR,SCT,0.04,WeatherDisplay:10.37,2013-02-10 10:22:00,
2013-02-10 01:27:00,37.8,33.4,28.56,ENE,68,5.8,5.8,84,0.04,CLR,SCT,0.04,WeatherDisplay:10.37,2013-02-10 10:27:00,
2013-02-10 01:32:00,38.1,33.1,28.56,ENE,68,4.6,4.6,82,0.04,CLR,SCT,0.04,WeatherDisplay:10.37,2013-02-10 10:32:00,
2013-02-10 01:37:00,37.8,32.8,28.56,SE,135,3.6,0.0,82,0.00,CLR,SCT,0.04,WeatherDisplay:10.37,2013-02-10 10:37:00,
2013-02-10 01:42:00,37.8,32.8,28.56,SSE,158,4.6,4.6,82,0.00,CLR,SCT,0.04,WeatherDisplay:10.37,2013-02-10 10:42:00,
2013-02-10 01:47:00,37.6,32.6,28.56,SE,135,3.5,0.0,82,0.00,CLR,SCT,0.04,WeatherDisplay:10.37,2013-02-10 10:47:00,
2013-02-10 01:52:00,37.6,32.6,28.56,SE,135,3.5,3.5,82,0.00,CLR,SCT,0.04,WeatherDisplay:10.37,2013-02-10 10:52:00,
2013-02-10 01:57:00,37.6,32.6,28.56,SE,135,0.0,0.0,82,0.00,CLR,SCT,0.04,WeatherDisplay:10.37,2013-02-10 10:57:00,
2013-02-10 02:02:00,37.6,32.6,28.56,SE,135,3.5,0.0,82,0.00,CLR,SCT,0.04,WeatherDisplay:10.37,2013-02-10 11:02:00,
2013-02-10 02:07:00,37.6,32.9,28.56,SE,135,0.0,0.0,83,0.00,CLR,SCT,0.04,WeatherDisplay:10.37,2013-02-10 11:07:00,
2013-02-10 02:12:00,37.6,32.9,28.56,SE,135,3.1,0.0,83,0.00,CLR,SCT,0.04,WeatherDisplay:10.37,2013-02-10 11:12:00,
2013-02-10 02:17:00,37.6,32.9,28.56,SE,135,0.0,0.0,83,0.00,CLR,SCT,0.04,WeatherDisplay:10.37,2013-02-10 11:17:00,
2013-02-10 02:22:00,37.4,33.0,28.56,NE,45,4.0,0.0,84,0.00,CLR,SCT,0.04,WeatherDisplay:10.37,2013-02-10 11:22:00,
2013-02-10 02:27:00,37.9,33.5,28.56,East,90,3.5,3.5,84,0.00,CLR,SCT,0.04,WeatherDisplay:10.37,2013-02-10 11:27:00,
2013-02-10 02:32:00,37.8,33.4,28.56,SE,135,2.3,0.0,84,0.00,CLR,SCT,0.04,WeatherDisplay:10.37,2013-02-10 11:32:00,
2013-02-10 02:37:00,37.8,33.4,28.56,SE,135,4.6,4.6,84,0.00,CLR,SCT,0.04,WeatherDisplay:10.37,2013-02-10 11:37:00,
2013-02-10 02:42:00,37.6,33.2,28.56,SE,135,4.6,4.6,84,0.00,CLR,SCT,0.04,WeatherDisplay:10.37,2013-02-10 11:42:00,
2013-02-10 02:47:00,37.8,33.4,28.56,SE,135,4.6,4.6,84,0.00,CLR,SCT,0.04,WeatherDisplay:10.37,2013-02-10 11:47:00,
2013-02-10 02:52:00,37.6,32.9,28.56,SE,135,3.5,3.5,83,0.00,CLR,SCT,0.04,WeatherDisplay:10.37,2013-02-10 11:52:00,
2013-02-10 02:57:00,37.6,32.9,28.56,SE,135,3.5,3.5,83,0.00,CLR,SCT,0.04,WeatherDisplay:10.37,2013-02-10 11:57:00,
2013-02-10 03:02:00,37.8,33.1,28.56,SE,135,4.6,4.6,83,0.00,CLR,SCT,0.04,WeatherDisplay:10.37,2013-02-10 12:02:00,
2013-02-10 03:07:00,37.6,32.6,28.58,SE,135,0.0,0.0,82,0.00,CLR,SCT,0.04,WeatherDisplay:10.37,2013-02-10 12:07:00,
2013-02-10 03:12:00,37.6,32.6,28.58,SE,135,2.3,0.0,82,0.00,CLR,SCT,0.04,WeatherDisplay:10.37,2013-02-10 12:12:00,
2013-02-10 03:17:00,37.6,32.6,28.58,SE,135,0.0,0.0,82,0.00,CLR,SCT,0.04,WeatherDisplay:10.37,2013-02-10 12:17:00,
2013-02-10 03:22:00,37.6,32.6,28.58,SE,135,0.0,0.0,82,0.00,CLR,SCT,0.04,WeatherDisplay:10.37,2013-02-10 12:22:00,
2013-02-10 03:27:00,37.6,32.6,28.56,SE,135,0.0,0.0,82,0.00,CLR,SCT,0.04,WeatherDisplay:10.37,2013-02-10 12:27:00,
2013-02-10 03:32:00,37.4,32.4,28.56,SE,135,3.5,3.5,82,0.00,CLR,SCT,0.04,WeatherDisplay:10.37,2013-02-10 12:32:00,
2013-02-10 03:37:00,37.6,32.3,28.58,ESE,112,0.0,0.0,81,0.00,CLR,SCT,0.04,WeatherDisplay:10.37,2013-02-10 12:37:00,
2013-02-10 03:42:00,37.8,32.1,28.58,ESE,112,0.0,0.0,80,0.00,CLR,SCT,0.04,WeatherDisplay:10.37,2013-02-10 12:42:00,
2013-02-10 03:47:00,37.8,31.8,28.58,ESE,112,3.5,0.0,79,0.00,CLR,SCT,0.04,WeatherDisplay:10.37,2013-02-10 12:47:00,
2013-02-10 03:52:00,37.8,31.8,28.58,ESE,112,0.0,0.0,79,0.00,CLR,SCT,0.04,WeatherDisplay:10.37,2013-02-10 12:52:00,
2013-02-10 03:57:00,37.8,31.8,28.58,ESE,112,0.0,0.0,79,0.00,CLR,SCT,0.08,WeatherDisplay:10.37,2013-02-10 12:57:00,
2013-02-10 04:02:00,37.8,31.8,28.58,ESE,112,0.0,0.0,79,0.04,RA,SCT,0.08,WeatherDisplay:10.37,2013-02-10 13:02:00,
2013-02-10 04:07:00,37.8,31.8,28.58,ESE,112,0.0,0.0,79,0.04,RA,SCT,0.08,WeatherDisplay:10.37,2013-02-10 13:07:00,
2013-02-10 04:12:00,37.8,32.1,28.58,ESE,112,0.0,0.0,80,0.04,CLR,SCT,0.08,WeatherDisplay:10.37,2013-02-10 13:12:00,
2013-02-10 04:17:00,37.8,32.8,28.58,ESE,112,0.0,0.0,82,0.04,CLR,SCT,0.08,WeatherDisplay:10.37,2013-02-10 13:17:00,
2013-02-10 04:22:00,37.6,32.9,28.58,ESE,112,0.0,0.0,83,0.04,CLR,SCT,0.08,WeatherDisplay:10.37,2013-02-10 13:22:00,
2013-02-10 04:27:00,37.9,33.8,28.58,ESE,112,0.0,0.0,85,0.04,CLR,SCT,0.08,WeatherDisplay:10.37,2013-02-10 13:27:00,
2013-02-10 04:32:00,38.1,34.3,28.58,East,90,0.0,0.0,86,0.04,CLR,SCT,0.08,WeatherDisplay:10.37,2013-02-10 13:32:00,
2013-02-10 04:37:00,38.3,34.5,28.58,ENE,68,0.0,0.0,86,0.04,CLR,SCT,0.08,WeatherDisplay:10.37,2013-02-10 13:37:00,
2013-02-10 04:42:00,38.3,34.8,28.58,ENE,68,0.0,0.0,87,0.04,CLR,SCT,0.08,WeatherDisplay:10.37,2013-02-10 13:42:00,
2013-02-10 04:47:00,38.3,34.8,28.58,NE,45,0.0,0.0,87,0.04,CLR,SCT,0.08,WeatherDisplay:10.37,2013-02-10 13:47:00,
2013-02-10 04:53:00,38.5,35.2,28.61,NE,45,0.0,0.0,88,0.08,RA,SCT,0.12,WeatherDisplay:10.37,2013-02-10 13:53:00,
2013-02-10 04:58:00,39.4,36.1,28.61,ENE,68,0.0,0.0,88,0.04,RA,SCT,0.12,WeatherDisplay:10.37,2013-02-10 13:58:00,
2013-02-10 05:03:00,39.7,36.8,28.61,East,90,0.0,0.0,89,0.04,CLR,SCT,0.12,WeatherDisplay:10.37,2013-02-10 14:03:00,
2013-02-10 05:08:00,40.5,37.8,28.61,East,90,3.6,0.0,90,0.04,CLR,SCT,0.12,WeatherDisplay:10.37,2013-02-10 14:08:00,
2013-02-10 05:13:00,41.2,38.5,28.61,East,90,2.3,0.0,90,0.04,CLR,SCT,0.12,WeatherDisplay:10.37,2013-02-10 14:13:00,
2013-02-10 05:18:00,41.5,39.1,28.61,East,90,2.3,0.0,91,0.08,RA,SCT,0.16,WeatherDisplay:10.37,2013-02-10 14:18:00,
2013-02-10 05:23:00,41.7,39.3,28.61,East,90,0.0,0.0,91,0.08,RA,SCT,0.16,WeatherDisplay:10.37,2013-02-10 14:23:00,
2013-02-10 05:28:00,42.3,40.1,28.61,East,90,0.0,0.0,92,0.08,,SCT,0.16,WeatherDisplay:10.37,2013-02-10 14:28:00,
2013-02-10 05:33:00,42.6,40.5,28.61,East,90,0.0,0.0,92,0.08,CLR,SCT,0.16,WeatherDisplay:10.37,2013-02-10 14:33:00,
2013-02-10 05:38:00,43.2,41.0,28.61,East,90,0.0,0.0,92,0.08,CLR,SCT,0.16,WeatherDisplay:10.37,2013-02-10 14:38:00,
2013-02-10 05:43:00,43.5,41.4,28.61,ESE,112,0.0,0.0,92,0.08,CLR,SCT,0.16,WeatherDisplay:10.37,2013-02-10 14:43:00,
2013-02-10 05:48:00,43.5,41.6,28.61,SE,135,6.2,6.2,93,0.08,CLR,SCT,0.16,WeatherDisplay:10.37,2013-02-10 14:48:00,
2013-02-10 05:53:00,43.7,41.8,28.64,SE,135,4.6,4.6,93,0.08,RA,SCT,0.20,WeatherDisplay:10.37,2013-02-10 14:53:00,
2013-02-10 05:58:00,43.3,41.5,28.64,SE,135,4.6,4.6,93,0.08,RA,SCT,0.20,WeatherDisplay:10.37,2013-02-10 14:58:00,
2013-02-10 06:03:00,43.3,41.5,28.64,SE,135,3.5,3.5,93,0.08,CLR,SCT,0.20,WeatherDisplay:10.37,2013-02-10 15:03:00,
2013-02-10 06:08:00,43.5,41.9,28.64,SE,135,5.8,5.8,94,0.08,CLR,SCT,0.20,WeatherDisplay:10.37,2013-02-10 15:08:00,
2013-02-10 06:13:00,43.3,41.7,28.64,South,180,5.8,5.8,94,0.08,CLR,SCT,0.20,WeatherDisplay:10.37,2013-02-10 15:13:00,
2013-02-10 06:18:00,43.2,41.6,28.64,SE,135,5.8,5.9,94,0.04,CLR,SCT,0.20,WeatherDisplay:10.37,2013-02-10 15:18:00,
2013-02-10 06:23:00,42.8,41.2,28.64,South,180,9.2,9.2,94,0.04,CLR,SCT,0.24,WeatherDisplay:10.37,2013-02-10 15:23:00,
2013-02-10 06:28:00,42.4,40.8,28.64,SSE,158,4.9,4.9,94,0.08,RA,SCT,0.24,WeatherDisplay:10.37,2013-02-10 15:28:00,
2013-02-10 06:33:00,42.1,40.5,28.64,WSW,248,8.1,8.1,94,0.08,RA,SCT,0.24,WeatherDisplay:10.37,2013-02-10 15:33:00,
2013-02-10 06:38:00,41.7,40.1,28.67,SE,135,5.8,5.8,94,0.08,CLR,SCT,0.24,WeatherDisplay:10.37,2013-02-10 15:38:00,
2013-02-10 06:43:00,41.0,39.4,28.67,SSW,202,9.7,9.7,94,0.08,CLR,SCT,0.24,WeatherDisplay:10.37,2013-02-10 15:43:00,
2013-02-10 06:48:00,40.3,38.7,28.67,WSW,248,10.4,10.4,94,0.08,CLR,SCT,0.24,WeatherDisplay:10.37,2013-02-10 15:48:00,
2013-02-10 06:53:00,39.9,38.3,28.67,West,270,8.3,8.3,94,0.04,CLR,SCT,0.24,WeatherDisplay:10.37,2013-02-10 15:53:00,
2013-02-10 06:58:00,39.9,38.3,28.67,South,180,9.2,9.2,94,0.04,CLR,SCT,0.24,WeatherDisplay:10.37,2013-02-10 15:58:00,
2013-02-10 07:03:00,39.4,37.8,28.67,SSW,202,13.7,13.7,94,0.04,CLR,SCT,0.24,WeatherDisplay:10.37,2013-02-10 16:03:00,
2013-02-10 07:08:00,39.9,38.3,28.70,South,180,8.1,8.1,94,0.04,CLR,SCT,0.24,WeatherDisplay:10.37,2013-02-10 16:08:00,
2013-02-10 07:13:00,41.2,39.6,28.70,West,270,9.2,9.2,94,0.04,CLR,SCT,0.24,WeatherDisplay:10.37,2013-02-10 16:13:00,
2013-02-10 07:18:00,41.9,40.3,28.70,WSW,248,5.8,5.8,94,0.04,CLR,SCT,0.24,WeatherDisplay:10.37,2013-02-10 16:18:00,
2013-02-10 07:23:00,42.8,41.2,28.73,SW,225,8.1,8.1,94,0.04,CLR,SCT,0.24,WeatherDisplay:10.37,2013-02-10 16:23:00,
2013-02-10 07:29:00,43.9,42.3,28.73,SSW,202,10.9,10.9,94,0.00,CLR,SCT,0.24,WeatherDisplay:10.37,2013-02-10 16:29:00,
2013-02-10 07:34:00,44.1,42.7,28.73,SW,225,8.1,8.1,95,0.00,CLR,SCT,0.24,WeatherDisplay:10.37,2013-02-10 16:34:00,
2013-02-10 07:39:00,43.9,42.5,28.76,SSW,202,5.9,6.2,95,0.00,CLR,SCT,0.24,WeatherDisplay:10.37,2013-02-10 16:39:00,
2013-02-10 07:44:00,43.5,42.2,28.76,SW,225,6.2,6.2,95,0.00,CLR,SCT,0.24,WeatherDisplay:10.37,2013-02-10 16:44:00,
2013-02-10 07:49:00,42.1,40.8,28.76,SE,135,8.1,8.1,95,0.00,CLR,SCT,0.24,WeatherDisplay:10.37,2013-02-10 16:49:00,
2013-02-10 07:54:00,41.0,39.7,28.76,SSW,202,11.5,11.5,95,0.00,CLR,SCT,0.24,WeatherDisplay:10.37,2013-02-10 16:54:00,
2013-02-10 07:59:00,40.3,39.0,28.76,South,180,8.1,8.1,95,0.00,CLR,SCT,0.24,WeatherDisplay:10.37,2013-02-10 16:59:00,
2013-02-10 08:04:00,39.6,38.2,28.76,ESE,112,5.8,5.8,95,0.00,CLR,SCT,0.24,WeatherDisplay:10.37,2013-02-10 17:04:00,
2013-02-10 08:09:00,38.5,37.2,28.79,SSE,158,10.4,10.4,95,0.00,CLR,SCT,0.24,WeatherDisplay:10.37,2013-02-10 17:09:00,
2013-02-10 08:14:00,37.8,36.2,28.79,SE,135,8.1,8.1,94,0.00,CLR,SCT,0.24,WeatherDisplay:10.37,2013-02-10 17:14:00,
2013-02-10 08:19:00,37.0,35.5,28.79,ESE,112,8.1,8.1,94,0.00,CLR,SCT,0.24,WeatherDisplay:10.37,2013-02-10 17:19:00,
2013-02-10 08:24:00,36.7,34.6,28.82,SSE,158,10.4,10.4,92,0.00,CLR,SCT,0.24,WeatherDisplay:10.37,2013-02-10 17:24:00,
2013-02-10 08:29:00,36.5,34.4,28.82,SSE,158,6.2,6.2,92,0.00,CLR,SCT,0.24,WeatherDisplay:10.37,2013-02-10 17:29:00,
2013-02-10 08:34:00,36.5,34.1,28.82,SSE,158,9.2,9.2,91,0.00,CLR,SCT,0.24,WeatherDisplay:10.37,2013-02-10 17:34:00,
2013-02-10 08:39:00,36.3,33.7,28.82,SE,135,9.2,9.2,90,0.00,CLR,SCT,0.24,WeatherDisplay:10.37,2013-02-10 17:39:00,
2013-02-10 08:44:00,36.0,33.3,28.82,SSW,202,9.2,9.2,90,0.00,CLR,SCT,0.24,WeatherDisplay:10.37,2013-02-10 17:44:00,
2013-02-10 08:49:00,35.6,32.4,28.82,ESE,112,9.2,9.2,88,0.00,CLR,SCT,0.24,WeatherDisplay:10.37,2013-02-10 17:49:00,
2013-02-10 08:54:00,35.4,32.2,28.82,SSE,158,9.2,9.2,88,0.00,CLR,SCT,0.24,WeatherDisplay:10.37,2013-02-10 17:54:00,
2013-02-10 08:59:00,35.4,32.2,28.82,ENE,68,4.9,4.9,88,0.00,CLR,SCT,0.24,WeatherDisplay:10.37,2013-02-10 17:59:00,
2013-02-10 09:04:00,35.1,31.6,28.82,South,180,9.2,9.2,87,0.00,CLR,SCT,0.24,WeatherDisplay:10.37,2013-02-10 18:04:00,
2013-02-10 09:09:00,34.9,31.1,28.85,SE,135,9.2,9.2,86,0.00,CLR,SCT,0.24,WeatherDisplay:10.37,2013-02-10 18:09:00,
2013-02-10 09:14:00,34.9,30.8,28.85,SSE,158,8.1,8.1,85,0.00,CLR,SCT,0.24,WeatherDisplay:10.37,2013-02-10 18:14:00,
2013-02-10 09:19:00,34.7,30.1,28.85,SSW,202,8.1,8.1,83,0.00,CLR,SCT,0.24,WeatherDisplay:10.37,2013-02-10 18:19:00,
2013-02-10 09:24:00,34.5,29.9,28.85,SE,135,5.8,5.8,83,0.00,CLR,SCT,0.24,WeatherDisplay:10.37,2013-02-10 18:24:00,
2013-02-10 09:29:00,34.7,29.2,28.85,SSW,202,5.8,5.8,80,0.00,CLR,SCT,0.24,WeatherDisplay:10.37,2013-02-10 18:29:00,
2013-02-10 09:34:00,34.7,28.5,28.85,SE,135,8.1,8.1,78,0.00,CLR,SCT,0.24,WeatherDisplay:10.37,2013-02-10 18:34:00,
2013-02-10 09:39:00,34.5,28.4,28.88,SE,135,8.1,8.1,78,0.00,CLR,SCT,0.24,WeatherDisplay:10.37,2013-02-10 18:39:00,
2013-02-10 09:44:00,34.5,28.1,28.88,South,180,10.4,10.4,77,0.00,CLR,SCT,0.24,WeatherDisplay:10.37,2013-02-10 18:44:00,
2013-02-10 09:49:00,34.5,28.1,28.88,SSW,202,10.9,10.9,77,0.00,CLR,SCT,0.24,WeatherDisplay:10.37,2013-02-10 18:49:00,
2013-02-10 09:54:00,34.7,27.6,28.88,ESE,112,10.4,10.4,75,0.00,CLR,SCT,0.24,WeatherDisplay:10.37,2013-02-10 18:54:00,
2013-02-10 09:59:00,34.7,27.9,28.88,SSE,158,5.9,5.9,76,0.00,CLR,SCT,0.24,WeatherDisplay:10.37,2013-02-10 18:59:00,
2013-02-10 10:04:00,34.5,27.7,28.88,SSE,158,12.7,12.7,76,0.00,CLR,SCT,0.24,WeatherDisplay:10.37,2013-02-10 19:04:00,
2013-02-10 10:09:00,34.9,28.1,28.91,SSW,202,8.3,8.3,76,0.00,CLR,SCT,0.24,WeatherDisplay:10.37,2013-02-10 19:09:00,
2013-02-10 10:14:00,35.1,28.6,28.91,SE,135,8.1,8.1,77,0.00,CLR,SCT,0.24,WeatherDisplay:10.37,2013-02-10 19:14:00,
2013-02-10 10:19:00,35.2,28.8,28.91,SSE,158,9.2,9.2,77,0.00,CLR,SCT,0.24,WeatherDisplay:10.37,2013-02-10 19:19:00,
2013-02-10 10:24:00,35.4,28.9,28.91,South,180,8.1,8.1,77,0.00,CLR,SCT,0.24,WeatherDisplay:10.37,2013-02-10 19:24:00,
2013-02-10 10:29:00,35.4,28.9,28.91,ESE,112,8.1,8.1,77,0.00,CLR,SCT,0.24,WeatherDisplay:10.37,2013-02-10 19:29:00,
2013-02-10 10:34:00,35.6,29.1,28.91,South,180,10.4,10.4,77,0.00,CLR,SCT,0.24,WeatherDisplay:10.37,2013-02-10 19:34:00,
2013-02-10 10:39:00,35.8,29.6,28.91,SSW,202,6.2,6.2,78,0.00,CLR,SCT,0.24,WeatherDisplay:10.37,2013-02-10 19:39:00,
2013-02-10 10:44:00,35.8,29.6,28.91,SSE,158,5.8,5.8,78,0.00,CLR,SCT,0.24,WeatherDisplay:10.37,2013-02-10 19:44:00,
2013-02-10 10:49:00,36.1,29.9,28.91,ESE,112,4.6,4.6,78,0.00,CLR,SCT,0.24,WeatherDisplay:10.37,2013-02-10 19:49:00,
2013-02-10 10:54:00,36.3,30.1,28.94,South,180,5.8,5.8,78,0.00,CLR,SCT,0.24,WeatherDisplay:10.37,2013-02-10 19:54:00,
2013-02-10 10:59:00,36.9,30.0,28.94,SE,135,8.7,8.7,76,0.00,CLR,SCT,0.24,WeatherDisplay:10.37,2013-02-10 19:59:00,
2013-02-10 11:04:00,36.7,28.5,28.94,SE,135,8.1,8.1,72,0.00,CLR,SCT,0.24,WeatherDisplay:10.37,2013-02-10 20:04:00,
2013-02-10 11:09:00,36.7,28.8,28.94,SE,135,10.4,10.4,73,0.00,CLR,SCT,0.24,WeatherDisplay:10.37,2013-02-10 20:09:00,
2013-02-10 11:14:00,36.7,28.5,28.94,SSE,158,6.2,6.2,72,0.00,CLR,SCT,0.24,WeatherDisplay:10.37,2013-02-10 20:14:00,
2013-02-10 11:19:00,36.7,28.5,28.94,SE,135,5.8,5.8,72,0.00,CLR,SCT,0.24,WeatherDisplay:10.37,2013-02-10 20:19:00,
2013-02-10 11:24:00,36.7,28.8,28.94,South,180,5.4,5.4,73,0.00,CLR,SCT,0.24,WeatherDisplay:10.37,2013-02-10 20:24:00,
2013-02-10 11:29:00,36.7,28.2,28.94,SSE,158,5.8,5.8,71,0.00,CLR,SCT,0.24,WeatherDisplay:10.37,2013-02-10 20:29:00,
2013-02-10 11:34:00,36.7,27.8,28.94,SSW,202,8.1,8.1,70,0.00,CLR,SCT,0.24,WeatherDisplay:10.37,2013-02-10 20:34:00,
2013-02-10 11:39:00,36.9,27.3,28.94,SSE,158,10.4,10.4,68,0.00,CLR,SCT,0.24,WeatherDisplay:10.37,2013-02-10 20:39:00,
2013-02-10 11:45:00,36.9,26.6,28.94,SSE,158,12.7,12.7,66,0.00,CLR,SCT,0.24,WeatherDisplay:10.37,2013-02-10 20:45:00,
2013-02-10 11:50:00,36.7,27.1,28.94,SW,225,8.3,8.3,68,0.00,CLR,SCT,0.24,WeatherDisplay:10.37,2013-02-10 20:50:00,
2013-02-10 11:55:00,36.5,27.3,28.97,SSE,158,8.1,8.1,69,0.00,CLR,SCT,0.24,WeatherDisplay:10.37,2013-02-10 20:55:00,
2013-02-10 12:00:00,36.5,26.6,28.97,South,180,12.3,12.3,67,0.00,CLR,SCT,0.24,WeatherDisplay:10.37,2013-02-10 21:00:00,
2013-02-10 12:05:00,36.3,26.8,28.97,SSW,202,10.5,10.5,68,0.00,CLR,SCT,0.24,WeatherDisplay:10.37,2013-02-10 21:05:00,
2013-02-10 12:10:00,36.3,27.5,28.97,SSW,202,8.1,8.1,70,0.00,CLR,SCT,0.24,WeatherDisplay:10.37,2013-02-10 21:10:00,
2013-02-10 12:15:00,36.3,28.2,28.97,South,180,5.9,5.9,72,0.00,CLR,SCT,0.24,WeatherDisplay:10.37,2013-02-10 21:15:00,
2013-02-10 12:20:00,36.3,28.8,28.97,ESE,112,8.1,8.1,74,0.00,CLR,SCT,0.24,WeatherDisplay:10.37,2013-02-10 21:20:00,
2013-02-10 12:25:00,36.1,29.3,28.97,SSE,158,8.3,8.3,76,0.00,CLR,SCT,0.24,WeatherDisplay:10.37,2013-02-10 21:25:00,
2013-02-10 12:30:00,36.1,29.6,28.97,SE,135,9.2,9.2,77,0.00,CLR,SCT,0.24,WeatherDisplay:10.37,2013-02-10 21:30:00,
2013-02-10 12:35:00,36.3,30.4,28.97,SE,135,10.4,10.4,79,0.00,CLR,SCT,0.28,WeatherDisplay:10.37,2013-02-10 21:35:00,
2013-02-10 12:40:00,36.3,30.4,28.97,SE,135,11.5,11.5,79,0.04,RA,SCT,0.28,WeatherDisplay:10.37,2013-02-10 21:40:00,
2013-02-10 12:45:00,36.1,30.3,28.97,South,180,18.4,18.4,79,0.04,RA,SCT,0.28,WeatherDisplay:10.37,2013-02-10 21:45:00,
2013-02-10 12:50:00,36.1,30.3,28.97,SE,135,10.4,10.4,79,0.04,CLR,SCT,0.28,WeatherDisplay:10.37,2013-02-10 21:50:00,
2013-02-10 12:55:00,36.1,30.6,28.97,SE,135,10.4,10.4,80,0.04,CLR,SCT,0.28,WeatherDisplay:10.37,2013-02-10 21:55:00,
2013-02-10 13:00:00,36.1,30.3,28.97,SSE,158,12.7,12.7,79,0.04,CLR,SCT,0.28,WeatherDisplay:10.37,2013-02-10 22:00:00,
2013-02-10 13:05:00,36.1,30.3,28.97,SE,135,7.6,7.6,79,0.04,CLR,SCT,0.28,WeatherDisplay:10.37,2013-02-10 22:05:00,
2013-02-10 13:10:00,36.1,30.3,29.00,SE,135,9.2,9.2,79,0.04,CLR,SCT,0.28,WeatherDisplay:10.37,2013-02-10 22:10:00,
2013-02-10 13:15:00,36.0,30.1,29.00,SW,225,11.5,11.5,79,0.04,CLR,SCT,0.28,WeatherDisplay:10.37,2013-02-10 22:15:00,
2013-02-10 13:20:00,36.0,30.4,29.00,ESE,112,8.1,8.1,80,0.04,CLR,SCT,0.28,WeatherDisplay:10.37,2013-02-10 22:20:00,
2013-02-10 13:25:00,36.0,30.1,29.00,ESE,112,6.9,6.9,79,0.04,CLR,SCT,0.28,WeatherDisplay:10.37,2013-02-10 22:25:00,
2013-02-10 13:30:00,36.1,29.9,29.00,SSW,202,5.8,5.8,78,0.04,CLR,SCT,0.28,WeatherDisplay:10.37,2013-02-10 22:30:00,
2013-02-10 13:35:00,36.5,29.3,29.00,WNW,292,5.8,5.8,75,0.04,CLR,SCT,0.28,WeatherDisplay:10.37,2013-02-10 22:35:00,
2013-02-10 13:40:00,36.3,27.8,29.00,SSW,202,8.1,8.1,71,0.00,CLR,SCT,0.28,WeatherDisplay:10.37,2013-02-10 22:40:00,
2013-02-10 13:45:00,36.1,27.3,29.00,NW,315,5.4,5.4,70,0.00,CLR,SCT,0.28,WeatherDisplay:10.37,2013-02-10 22:45:00,
2013-02-10 13:50:00,36.0,27.1,29.00,SW,225,5.8,5.8,70,0.00,CLR,SCT,0.28,WeatherDisplay:10.37,2013-02-10 22:50:00,
2013-02-10 13:55:00,36.0,27.5,29.00,SSW,202,5.8,5.8,71,0.00,CLR,SCT,0.28,WeatherDisplay:10.37,2013-02-10 22:55:00,
2013-02-10 14:00:00,35.8,26.9,29.00,SSW,202,10.4,10.4,70,0.00,CLR,SCT,0.28,WeatherDisplay:10.37,2013-02-10 23:00:00,
2013-02-10 14:05:00,35.8,27.3,29.00,SSE,158,5.8,5.8,71,0.00,CLR,SCT,0.28,WeatherDisplay:10.37,2013-02-10 23:05:00,
2013-02-10 14:10:00,35.8,26.9,29.00,WSW,248,8.1,8.1,70,0.00,CLR,SCT,0.28,WeatherDisplay:10.37,2013-02-10 23:10:00,
2013-02-10 14:15:00,35.6,26.8,29.00,WSW,248,5.8,5.8,70,0.00,CLR,SCT,0.28,WeatherDisplay:10.37,2013-02-10 23:15:00,
2013-02-10 14:20:00,35.6,26.8,29.00,WSW,248,3.5,3.5,70,0.00,CLR,SCT,0.28,WeatherDisplay:10.37,2013-02-10 23:20:00,
2013-02-10 14:25:00,35.8,27.3,29.00,West,270,4.6,4.6,71,0.00,CLR,SCT,0.28,WeatherDisplay:10.37,2013-02-10 23:25:00,
2013-02-10 14:30:00,35.6,27.1,29.00,SSE,158,8.1,8.1,71,0.00,CLR,SCT,0.28,WeatherDisplay:10.37,2013-02-10 23:30:00,
2013-02-10 14:35:00,35.6,27.1,29.00,SSE,158,5.8,5.8,71,0.00,CLR,SCT,0.28,WeatherDisplay:10.37,2013-02-10 23:35:00,
2013-02-10 14:40:00,35.8,27.6,29.00,South,180,4.6,4.6,72,0.00,CLR,SCT,0.28,WeatherDisplay:10.37,2013-02-10 23:40:00,
2013-02-10 14:45:00,35.8,27.6,29.00,South,180,4.6,4.6,72,0.00,CLR,SCT,0.28,WeatherDisplay:10.37,2013-02-10 23:45:00,
2013-02-10 14:50:00,35.8,27.6,29.00,SW,225,5.8,5.8,72,0.00,CLR,SCT,0.28,WeatherDisplay:10.37,2013-02-10 23:50:00,
2013-02-10 14:55:00,35.8,27.6,29.00,SSW,202,5.8,5.8,72,0.00,CLR,SCT,0.28,WeatherDisplay:10.37,2013-02-10 23:55:00,
2013-02-10 15:00:00,36.0,27.8,29.00,South,180,3.5,3.5,72,0.00,CLR,SCT,0.28,WeatherDisplay:10.37,2013-02-11 00:00:00,
2013-02-10 15:05:00,35.8,27.6,29.00,SSW,202,4.5,4.5,72,0.00,CLR,SCT,0.28,WeatherDisplay:10.37,2013-02-11 00:05:00,
2013-02-10 15:10:00,35.8,27.3,29.00,SW,225,3.5,3.5,71,0.00,CLR,SCT,0.28,WeatherDisplay:10.37,2013-02-11 00:10:00,
2013-02-10 15:15:00,35.6,27.5,29.00,SSW,202,3.1,0.0,72,0.00,CLR,SCT,0.28,WeatherDisplay:10.37,2013-02-11 00:15:00,
2013-02-10 15:20:00,35.4,27.3,29.00,SW,225,4.6,4.6,72,0.00,CLR,SCT,0.28,WeatherDisplay:10.37,2013-02-11 00:20:00,
2013-02-10 15:25:00,35.4,27.3,29.03,SSE,158,4.0,4.0,72,0.00,CLR,SCT,0.28,WeatherDisplay:10.37,2013-02-11 00:25:00,
2013-02-10 15:30:00,35.4,27.3,29.03,SE,135,5.8,5.8,72,0.00,CLR,SCT,0.28,WeatherDisplay:10.37,2013-02-11 00:30:00,
2013-02-10 15:35:00,35.2,27.4,29.03,East,90,4.6,4.6,73,0.00,CLR,SCT,0.28,WeatherDisplay:10.37,2013-02-11 00:35:00,
2013-02-10 15:40:00,35.1,27.3,29.00,SSW,202,5.8,5.8,73,0.00,CLR,SCT,0.28,WeatherDisplay:10.37,2013-02-11 00:40:00,
2013-02-10 15:45:00,35.1,27.6,29.00,South,180,4.6,4.6,74,0.00,CLR,SCT,0.28,WeatherDisplay:10.37,2013-02-11 00:45:00,
2013-02-10 15:50:00,35.1,27.9,29.00,SSW,202,4.6,4.6,75,0.00,CLR,SCT,0.28,WeatherDisplay:10.37,2013-02-11 00:50:00,
2013-02-10 15:55:00,34.9,27.8,29.00,South,180,5.8,5.8,75,0.00,CLR,SCT,0.28,WeatherDisplay:10.37,2013-02-11 00:55:00,
2013-02-10 16:00:00,34.9,27.8,29.00,SSW,202,4.6,4.6,75,0.00,CLR,SCT,0.28,WeatherDisplay:10.37,2013-02-11 01:00:00,
2013-02-10 16:06:00,34.7,27.6,29.00,South,180,8.1,8.1,75,0.00,CLR,SCT,0.28,WeatherDisplay:10.37,2013-02-11 01:06:00,
2013-02-10 16:11:00,34.7,27.6,29.00,SSE,158,5.8,5.8,75,0.00,CLR,SCT,0.28,WeatherDisplay:10.37,2013-02-11 01:11:00,
2013-02-10 16:16:00,34.5,27.4,29.00,SW,225,9.2,9.2,75,0.00,CLR,SCT,0.28,WeatherDisplay:10.37,2013-02-11 01:16:00,
2013-02-10 16:21:00,34.5,27.7,29.00,SSW,202,5.8,5.8,76,0.00,CLR,SCT,0.28,WeatherDisplay:10.37,2013-02-11 01:21:00,
2013-02-10 16:26:00,34.3,27.9,29.03,SW,225,4.0,4.0,77,0.00,CLR,SCT,0.28,WeatherDisplay:10.37,2013-02-11 01:26:00,
2013-02-10 16:31:00,34.5,28.7,29.03,North,0,2.3,0.0,79,0.00,CLR,SCT,0.28,WeatherDisplay:10.37,2013-02-11 01:31:00,
2013-02-10 16:36:00,34.7,29.5,29.03,SW,225,4.0,0.0,81,0.00,CLR,SCT,0.28,WeatherDisplay:10.37,2013-02-11 01:36:00,
2013-02-10 16:41:00,34.9,30.5,29.03,SW,225,2.3,0.0,84,0.00,CLR,SCT,0.28,WeatherDisplay:10.37,2013-02-11 01:41:00,
2013-02-10 16:46:00,35.1,31.0,29.03,SSW,202,2.3,0.0,85,0.00,CLR,SCT,0.28,WeatherDisplay:10.37,2013-02-11 01:46:00,
2013-02-10 16:51:00,35.4,31.6,29.03,SSW,202,0.0,0.0,86,0.00,CLR,SCT,0.28,WeatherDisplay:10.37,2013-02-11 01:51:00,
2013-02-10 16:56:00,35.8,32.0,29.03,SSW,202,0.0,0.0,86,0.00,CLR,SCT,0.28,WeatherDisplay:10.37,2013-02-11 01:56:00,
2013-02-10 17:01:00,36.1,32.6,29.03,SSW,202,2.3,0.0,87,0.00,CLR,SCT,0.28,WeatherDisplay:10.37,2013-02-11 02:01:00,
2013-02-10 17:06:00,36.1,32.9,29.03,SSW,202,0.0,0.0,88,0.00,CLR,SCT,0.28,WeatherDisplay:10.37,2013-02-11 02:06:00,
2013-02-10 17:11:00,36.5,33.6,29.06,SSW,202,2.6,2.6,89,0.00,CLR,SCT,0.28,WeatherDisplay:10.37,2013-02-11 02:11:00,
2013-02-10 17:16:00,36.9,33.9,29.06,South,180,2.3,0.0,89,0.00,CLR,SCT,0.28,WeatherDisplay:10.37,2013-02-11 02:16:00,
2013-02-10 17:21:00,37.4,34.5,29.06,SSW,202,0.0,0.0,89,0.00,CLR,SCT,0.28,WeatherDisplay:10.37,2013-02-11 02:21:00,
2013-02-10 17:26:00,37.4,34.7,29.06,South,180,0.0,0.0,90,0.00,CLR,SCT,0.28,WeatherDisplay:10.37,2013-02-11 02:26:00,
2013-02-10 17:31:00,37.4,34.7,29.06,South,180,0.0,0.0,90,0.00,CLR,SCT,0.28,WeatherDisplay:10.37,2013-02-11 02:31:00,
2013-02-10 17:36:00,37.6,35.2,29.06,SE,135,2.3,0.0,91,0.00,CLR,SCT,0.28,WeatherDisplay:10.37,2013-02-11 02:36:00,
2013-02-10 17:41:00,37.8,35.4,29.06,SE,135,0.0,0.0,91,0.00,CLR,SCT,0.28,WeatherDisplay:10.37,2013-02-11 02:41:00,
2013-02-10 17:46:00,37.9,35.5,29.06,South,180,0.0,0.0,91,0.00,CLR,SCT,0.28,WeatherDisplay:10.37,2013-02-11 02:46:00,
2013-02-10 17:51:00,37.9,35.8,29.06,ESE,112,2.6,0.0,92,0.00,CLR,SCT,0.28,WeatherDisplay:10.37,2013-02-11 02:51:00,
2013-02-10 17:56:00,38.3,36.2,29.06,SE,135,0.0,0.0,92,0.00,CLR,SCT,0.28,WeatherDisplay:10.37,2013-02-11 02:56:00,
2013-02-10 18:01:00,38.5,36.4,29.06,South,180,0.0,0.0,92,0.00,CLR,SCT,0.28,WeatherDisplay:10.37,2013-02-11 03:01:00,
2013-02-10 18:06:00,38.5,36.4,29.06,South,180,0.0,0.0,92,0.00,CLR,SCT,0.28,WeatherDisplay:10.37,2013-02-11 03:06:00,
2013-02-10 18:11:00,38.5,36.6,29.06,SSE,158,0.0,0.0,93,0.00,CLR,SCT,0.28,WeatherDisplay:10.37,2013-02-11 03:11:00,
2013-02-10 18:16:00,38.8,37.0,29.06,SSE,158,0.0,0.0,93,0.00,CLR,SCT,0.28,WeatherDisplay:10.37,2013-02-11 03:16:00,
2013-02-10 18:21:00,39.0,37.2,29.06,SSE,158,2.3,0.0,93,0.00,CLR,SCT,0.28,WeatherDisplay:10.37,2013-02-11 03:21:00,
2013-02-10 18:26:00,39.0,37.2,29.09,SSE,158,2.3,0.0,93,0.00,CLR,SCT,0.28,WeatherDisplay:10.37,2013-02-11 03:26:00,
2013-02-10 18:31:00,38.8,37.0,29.09,SSE,158,0.0,0.0,93,0.00,CLR,SCT,0.28,WeatherDisplay:10.37,2013-02-11 03:31:00,
2013-02-10 18:36:00,38.8,37.3,29.09,SSE,158,0.0,0.0,94,0.00,CLR,SCT,0.28,WeatherDisplay:10.37,2013-02-11 03:36:00,
2013-02-10 18:41:00,38.7,37.1,29.06,SSE,158,0.0,0.0,94,0.00,CLR,SCT,0.28,WeatherDisplay:10.37,2013-02-11 03:41:00,
2013-02-10 18:46:00,38.5,36.9,29.06,SSE,158,0.0,0.0,94,0.00,CLR,SCT,0.28,WeatherDisplay:10.37,2013-02-11 03:46:00,
2013-02-10 18:51:00,38.5,36.9,29.06,SSE,158,2.2,0.0,94,0.00,CLR,SCT,0.28,WeatherDisplay:10.37,2013-02-11 03:51:00,
2013-02-10 18:56:00,38.3,36.7,29.09,SSE,158,2.3,0.0,94,0.00,CLR,SCT,0.28,WeatherDisplay:10.37,2013-02-11 03:56:00,
2013-02-10 19:01:00,38.3,36.7,29.09,SSE,158,2.6,0.0,94,0.00,CLR,SCT,0.28,WeatherDisplay:10.37,2013-02-11 04:01:00,
2013-02-10 19:06:00,38.3,36.7,29.09,SSE,158,3.5,3.5,94,0.00,CLR,SCT,0.28,WeatherDisplay:10.37,2013-02-11 04:06:00,
2013-02-10 19:11:00,38.3,36.7,29.09,SE,135,3.1,0.0,94,0.00,CLR,SCT,0.28,WeatherDisplay:10.37,2013-02-11 04:11:00,
2013-02-10 19:16:00,38.5,36.9,29.09,SE,135,2.6,2.6,94,0.00,CLR,SCT,0.28,WeatherDisplay:10.37,2013-02-11 04:16:00,
2013-02-10 19:21:00,38.7,37.1,29.09,SE,135,2.3,0.0,94,0.00,CLR,SCT,0.28,WeatherDisplay:10.37,2013-02-11 04:21:00,
2013-02-10 19:26:00,38.8,37.3,29.09,SE,135,2.3,2.3,94,0.00,CLR,SCT,0.28,WeatherDisplay:10.37,2013-02-11 04:26:00,
2013-02-10 19:31:00,39.2,37.6,29.09,SE,135,3.5,3.5,94,0.00,CLR,SCT,0.28,WeatherDisplay:10.37,2013-02-11 04:31:00,
2013-02-10 19:36:00,39.9,38.3,29.09,SE,135,3.1,3.1,94,0.00,CLR,SCT,0.28,WeatherDisplay:10.37,2013-02-11 04:36:00,
2013-02-10 19:41:00,40.5,38.9,29.09,SE,135,3.5,3.5,94,0.00,CLR,SCT,0.28,WeatherDisplay:10.37,2013-02-11 04:41:00,
2013-02-10 19:46:00,40.8,39.5,29.09,SE,135,3.5,3.5,95,0.00,CLR,SCT,0.28,WeatherDisplay:10.37,2013-02-11 04:46:00,
2013-02-10 19:51:00,40.8,39.5,29.09,ESE,112,3.5,3.5,95,0.00,CLR,SCT,0.28,WeatherDisplay:10.37,2013-02-11 04:51:00,
2013-02-10 19:56:00,40.3,39.0,29.09,ESE,112,5.8,5.8,95,0.00,CLR,SCT,0.28,WeatherDisplay:10.37,2013-02-11 04:56:00,
2013-02-10 20:00:00,39.2,37.9,29.09,SE,135,4.9,4.9,95,0.00,CLR,SCT,0.28,WeatherDisplay:10.37,2013-02-11 05:00:00,
2013-02-10 20:05:00,38.5,37.2,29.09,SSE,158,4.6,4.6,95,0.00,CLR,SCT,0.28,WeatherDisplay:10.37,2013-02-11 05:05:00,
2013-02-10 20:10:00,37.8,36.5,29.09,SE,135,4.6,4.6,95,0.00,CLR,SCT,0.28,WeatherDisplay:10.37,2013-02-11 05:10:00,
2013-02-10 20:15:00,37.2,35.9,29.09,SE,135,4.9,4.9,95,0.00,CLR,SCT,0.28,WeatherDisplay:10.37,2013-02-11 05:15:00,
2013-02-10 20:20:00,36.7,35.4,29.09,SSE,158,4.6,4.6,95,0.00,CLR,SCT,0.28,WeatherDisplay:10.37,2013-02-11 05:20:00,
2013-02-10 20:25:00,36.0,34.7,29.09,SSE,158,4.9,4.9,95,0.00,CLR,SCT,0.28,WeatherDisplay:10.37,2013-02-11 05:25:00,
2013-02-10 20:30:00,35.8,34.2,29.09,SE,135,4.0,0.0,94,0.00,CLR,SCT,0.28,WeatherDisplay:10.37,2013-02-11 05:30:00,
2013-02-10 20:35:00,35.8,34.2,29.09,SE,135,4.6,4.6,94,0.00,CLR,SCT,0.28,WeatherDisplay:10.37,2013-02-11 05:35:00,
2013-02-10 20:40:00,35.8,34.2,29.09,SSE,158,4.6,4.6,94,0.00,CLR,SCT,0.28,WeatherDisplay:10.37,2013-02-11 05:40:00,
2013-02-10 20:45:00,35.4,33.9,29.09,ESE,112,5.9,5.9,94,0.00,CLR,SCT,0.28,WeatherDisplay:10.37,2013-02-11 05:45:00,
2013-02-10 20:50:00,35.4,33.9,29.09,SE,135,5.8,5.8,94,0.00,CLR,SCT,0.28,WeatherDisplay:10.37,2013-02-11 05:50:00,
2013-02-10 20:55:00,35.1,33.2,29.09,SSE,158,3.1,0.0,93,0.00,CLR,SCT,0.28,WeatherDisplay:10.37,2013-02-11 05:55:00,
2013-02-10 21:00:00,34.5,32.7,29.09,SSE,158,5.8,5.8,93,0.00,CLR,SCT,0.28,WeatherDisplay:10.37,2013-02-11 06:00:00,
2013-02-10 21:05:00,34.3,32.5,29.09,SSE,158,3.5,3.5,93,0.00,CLR,SCT,0.28,WeatherDisplay:10.37,2013-02-11 06:05:00,
2013-02-10 21:10:00,34.3,32.5,29.09,SE,135,4.6,4.6,93,0.00,CLR,SCT,0.28,WeatherDisplay:10.37,2013-02-11 06:10:00,
2013-02-10 21:15:00,34.3,32.3,29.09,SE,135,3.5,3.5,92,0.00,CLR,SCT,0.28,WeatherDisplay:10.37,2013-02-11 06:15:00,
2013-02-10 21:20:00,34.3,32.3,29.09,SE,135,3.5,0.0,92,0.00,CLR,SCT,0.28,WeatherDisplay:10.37,2013-02-11 06:20:00,
2013-02-10 21:25:00,34.5,32.4,29.09,SE,135,4.6,4.6,92,0.00,CLR,SCT,0.28,WeatherDisplay:10.37,2013-02-11 06:25:00,
2013-02-10 21:30:00,34.5,32.4,29.09,SE,135,3.5,3.5,92,0.00,CLR,SCT,0.28,WeatherDisplay:10.37,2013-02-11 06:30:00,
2013-02-10 21:35:00,34.5,32.7,29.09,SE,135,4.6,4.6,93,0.00,CLR,SCT,0.28,WeatherDisplay:10.37,2013-02-11 06:35:00,
2013-02-10 21:40:00,34.7,32.9,29.12,SE,135,3.6,3.6,93,0.00,CLR,SCT,0.28,WeatherDisplay:10.37,2013-02-11 06:40:00,
2013-02-10 21:45:00,34.7,32.9,29.12,SSE,158,3.1,3.1,93,0.00,CLR,SCT,0.28,WeatherDisplay:10.37,2013-02-11 06:45:00,
2013-02-10 21:50:00,34.5,32.7,29.12,SE,135,3.5,3.5,93,0.00,CLR,SCT,0.28,WeatherDisplay:10.37,2013-02-11 06:50:00,
2013-02-10 21:55:00,34.5,32.7,29.12,SSE,158,4.6,4.6,93,0.00,CLR,SCT,0.28,WeatherDisplay:10.37,2013-02-11 06:55:00,
2013-02-10 22:00:00,34.5,32.7,29.12,SSW,202,5.8,5.8,93,0.00,CLR,SCT,0.28,WeatherDisplay:10.37,2013-02-11 07:00:00,
2013-02-10 22:05:00,34.3,32.5,29.12,South,180,3.5,3.5,93,0.00,CLR,SCT,0.28,WeatherDisplay:10.37,2013-02-11 07:05:00,
2013-02-10 22:10:00,34.3,32.3,29.12,SSW,202,4.0,4.0,92,0.00,CLR,SCT,0.28,WeatherDisplay:10.37,2013-02-11 07:10:00,
2013-02-10 22:15:00,34.3,32.3,29.12,South,180,4.6,4.6,92,0.00,CLR,SCT,0.28,WeatherDisplay:10.37,2013-02-11 07:15:00,
2013-02-10 22:20:00,34.2,32.1,29.12,South,180,5.8,5.8,92,0.00,CLR,SCT,0.28,WeatherDisplay:10.37,2013-02-11 07:20:00,
2013-02-10 22:25:00,34.2,32.1,29.12,SSW,202,3.5,4.0,92,0.00,CLR,SCT,0.28,WeatherDisplay:10.37,2013-02-11 07:25:00,
2013-02-10 22:30:00,34.0,31.9,29.12,SSE,158,4.6,4.6,92,0.00,CLR,SCT,0.28,WeatherDisplay:10.37,2013-02-11 07:30:00,
2013-02-10 22:35:00,33.8,31.7,29.12,SW,225,4.0,4.0,92,0.00,CLR,SCT,0.28,WeatherDisplay:10.37,2013-02-11 07:35:00,
2013-02-10 22:41:00,33.8,31.7,29.12,South,180,3.5,3.5,92,0.00,CLR,SCT,0.28,WeatherDisplay:10.37,2013-02-11 07:41:00,
2013-02-10 22:46:00,33.8,31.7,29.12,South,180,4.6,4.6,92,0.00,CLR,SCT,0.28,WeatherDisplay:10.37,2013-02-11 07:46:00,
2013-02-10 22:51:00,33.6,31.5,29.12,SSW,202,2.3,2.3,92,0.00,CLR,SCT,0.28,WeatherDisplay:10.37,2013-02-11 07:51:00,
2013-02-10 22:56:00,33.6,31.5,29.12,South,180,3.5,3.5,92,0.00,CLR,SCT,0.28,WeatherDisplay:10.37,2013-02-11 07:56:00,
2013-02-10 23:01:00,33.6,31.5,29.12,South,180,4.6,4.6,92,0.00,CLR,SCT,0.28,WeatherDisplay:10.37,2013-02-11 08:01:00,
2013-02-10 23:06:00,33.6,31.3,29.12,South,180,0.0,0.0,91,0.00,CLR,SCT,0.28,WeatherDisplay:10.37,2013-02-11 08:06:00,
2013-02-10 23:11:00,33.8,31.5,29.12,South,180,3.5,3.5,91,0.00,CLR,SCT,0.28,WeatherDisplay:10.37,2013-02-11 08:11:00,
2013-02-10 23:16:00,33.6,31.3,29.12,SSW,202,4.6,4.6,91,0.00,CLR,SCT,0.28,WeatherDisplay:10.37,2013-02-11 08:16:00,
2013-02-10 23:21:00,33.3,30.9,29.12,SSW,202,4.6,4.6,91,0.00,CLR,SCT,0.28,WeatherDisplay:10.37,2013-02-11 08:21:00,
2013-02-10 23:26:00,32.9,30.6,29.12,South,180,3.5,0.0,91,0.00,CLR,SCT,0.28,WeatherDisplay:10.37,2013-02-11 08:26:00,
2013-02-10 23:31:00,32.0,29.4,29.12,SSW,202,4.6,4.6,90,0.00,CLR,SCT,0.28,WeatherDisplay:10.37,2013-02-11 08:31:00,
2013-02-10 23:36:00,30.7,27.6,29.12,SSW,202,5.8,5.8,88,0.00,CLR,SCT,0.28,WeatherDisplay:10.37,2013-02-11 08:36:00,
2013-02-10 23:41:00,30.4,27.0,29.12,South,180,6.9,6.9,87,0.00,CLR,SCT,0.28,WeatherDisplay:10.37,2013-02-11 08:41:00,
2013-02-10 23:46:00,30.0,25.8,29.12,ENE,68,4.6,4.6,84,0.00,CLR,SCT,0.28,WeatherDisplay:10.37,2013-02-11 08:46:00,
2013-02-10 23:51:00,29.7,24.5,29.12,SW,225,4.9,4.9,81,0.00,CLR,SCT,0.28,WeatherDisplay:10.37,2013-02-11 08:51:00,
2013-02-10 23:56:00,29.3,23.6,29.12,SE,135,5.8,5.8,79,0.00,CLR,SCT,0.28,WeatherDisplay:10.37,2013-02-11 08:56:00,